| time (UTC) | temp C | wind direction | speed KPH | gust KPH | rain 1hr cm | rain 24hr cm | rain mn cm | humidity % | barometer mb |
| 20260903171638 | 23 | 146 | 4.8 | 4.8 | 0.00 | 0.00 | 0.00 | 33 | 1028.8 |
| 20260903171134 | 24 | 103 | 1.6 | 3.2 | 0.00 | 0.00 | 0.00 | 32 | 1028.6 |
| 20260903170633 | 23 | 248 | 4.8 | 8.0 | 0.00 | 0.00 | 0.00 | 34 | 1028.8 |
| 20260903170129 | 23 | 101 | 11.3 | 12.9 | 0.00 | 0.00 | 0.00 | 34 | 1028.6 |
| 20260903165627 | 23 | 125 | 3.2 | 3.2 | 0.00 | 0.00 | 0.00 | 33 | 1028.5 |
| 20260903165121 | 22 | 155 | 4.8 | 9.7 | 0.00 | 0.00 | 0.00 | 34 | 1028.6 |
| 20260903164616 | 23 | 277 | 4.8 | 9.7 | 0.00 | 0.00 | 0.00 | 34 | 1028.6 |
| 20260903164107 | 22 | 187 | 3.2 | 3.2 | 0.00 | 0.00 | 0.00 | 34 | 1028.5 |
| 20260903163606 | 23 | 230 | 3.2 | 4.8 | 0.00 | 0.00 | 0.00 | 35 | 1028.3 |
| 20260903163103 | 22 | 253 | 4.8 | 4.8 | 0.00 | 0.00 | 0.00 | 36 | 1028.5 |
| 20260903162559 | 22 | 243 | 6.4 | 9.7 | 0.00 | 0.00 | 0.00 | 36 | 1028.5 |
| 20260903162054 | 22 | 232 | 1.6 | 3.2 | 0.00 | 0.00 | 0.00 | 37 | 1028.5 |
| 20260903161549 | 22 | 201 | 4.8 | 4.8 | 0.00 | 0.00 | 0.00 | 37 | 1028.5 |
| 20260903161045 | 21 | 192 | 4.8 | 8.0 | 0.00 | 0.00 | 0.00 | 37 | 1028.5 |
| 20260903160544 | 22 | 252 | 4.8 | 4.8 | 0.00 | 0.00 | 0.00 | 38 | 1028.4 |
| 20260903160039 | 22 | 203 | 6.4 | 8.0 | 0.00 | 0.00 | 0.00 | 37 | 1028.6 |
| 20260903155538 | 21 | 196 | 1.6 | 3.2 | 0.00 | 0.00 | 0.00 | 38 | 1028.8 |
| 20260903155034 | 21 | 237 | 6.4 | 9.7 | 0.00 | 0.00 | 0.00 | 37 | 1028.4 |
| 20260903154530 | 21 | 211 | 3.2 | 4.8 | 0.00 | 0.00 | 0.00 | 39 | 1028.4 |
| 20260903154026 | 21 | 123 | 3.2 | 8.0 | 0.00 | 0.00 | 0.00 | 39 | 1028.3 |
| 20260903153520 | 21 | 226 | 4.8 | 4.8 | 0.00 | 0.00 | 0.00 | 39 | 1028.6 |
| 20260903153017 | 21 | 262 | 3.2 | 4.8 | 0.00 | 0.00 | 0.00 | 39 | 1028.4 |
| 20260903152512 | 21 | 232 | 4.8 | 8.0 | 0.00 | 0.00 | 0.00 | 39 | 1028.6 |
| 20260903152008 | 21 | 185 | 0.0 | 1.6 | 0.00 | 0.00 | 0.00 | 38 | 1029.0 |
| 20260903151507 | 20 | 208 | 8.0 | 12.9 | 0.00 | 0.00 | 0.00 | 39 | 1028.6 |
| 20260903151003 | 20 | 250 | 3.2 | 4.8 | 0.00 | 0.00 | 0.00 | 39 | 1028.5 |
| 20260903150457 | 20 | 317 | 3.2 | 4.8 | 0.00 | 0.00 | 0.00 | 41 | 1028.6 |
| 20260903145951 | 20 | 164 | 4.8 | 4.8 | 0.00 | 0.00 | 0.00 | 40 | 1028.8 |
| 20260903145447 | 20 | 197 | 1.6 | 1.6 | 0.00 | 0.00 | 0.00 | 41 | 1028.8 |
| 20260903144942 | 19 | 203 | 3.2 | 3.2 | 0.00 | 0.00 | 0.00 | 46 | 1029.3 |
| 20260903144441 | 19 | 213 | 6.4 | 8.0 | 0.00 | 0.00 | 0.00 | 43 | 1029.0 |
| 20260903143937 | 19 | 227 | 1.6 | 3.2 | 0.00 | 0.00 | 0.00 | 42 | 1029.0 |
| 20260903143433 | 18 | 82 | 1.6 | 3.2 | 0.00 | 0.00 | 0.00 | 43 | 1028.9 |
| 20260903142929 | 18 | 160 | 4.8 | 4.8 | 0.00 | 0.00 | 0.00 | 43 | 1029.0 |
| 20260903142424 | 18 | 149 | 6.4 | 9.7 | 0.00 | 0.00 | 0.00 | 44 | 1028.9 |
| 20260903141920 | 17 | 221 | 0.0 | 0.0 | 0.00 | 0.00 | 0.00 | 46 | 1028.8 |
| 20260903141415 | 17 | 210 | 3.2 | 3.2 | 0.00 | 0.00 | 0.00 | 46 | 1029.0 |
| 20260903140911 | 15 | 221 | 3.2 | 3.2 | 0.00 | 0.00 | 0.00 | 54 | 1029.0 |
| 20260903140401 | 14 | 248 | 1.6 | 3.2 | 0.00 | 0.00 | 0.00 | 56 | 1029.0 |
| 20260903135856 | 14 | 290 | 1.6 | 3.2 | 0.00 | 0.00 | 0.00 | 59 | 1028.8 |
| 20260903135352 | 14 | 219 | 1.6 | 1.6 | 0.00 | 0.00 | 0.00 | 57 | 1029.0 |
| 20260903134850 | 13 | 171 | 1.6 | 3.2 | 0.00 | 0.00 | 0.00 | 61 | 1028.8 |
| 20260903134346 | 12 | 187 | 1.6 | 1.6 | 0.00 | 0.00 | 0.00 | 61 | 1029.0 |
| 20260903133843 | 12 | 181 | 1.6 | 1.6 | 0.00 | 0.00 | 0.00 | 63 | 1028.8 |
| 20260903133339 | 11 | 215 | 0.0 | 0.0 | 0.00 | 0.00 | 0.00 | 66 | 1028.6 |
| 20260903132834 | 10 | 211 | 0.0 | 0.0 | 0.00 | 0.00 | 0.00 | 66 | 1029.0 |
| 20260903132330 | 10 | 196 | 1.6 | 1.6 | 0.00 | 0.00 | 0.00 | 67 | 1028.6 |
| 20260903131824 | 10 | 222 | 0.0 | 0.0 | 0.00 | 0.00 | 0.00 | 68 | 1028.6 |
| 20260903131324 | 10 | 220 | 0.0 | 0.0 | 0.00 | 0.00 | 0.00 | 69 | 1028.6 |
| 20260903130823 | 8 | 180 | 1.6 | 3.2 | 0.00 | 0.00 | 0.00 | 69 | 1028.6 |
| 20260903130318 | 8 | 204 | 0.0 | 0.0 | 0.00 | 0.00 | 0.00 | 70 | 1028.6 |
| 20260903125817 | 8 | 173 | 1.6 | 1.6 | 0.00 | 0.00 | 0.00 | 70 | 1028.5 |
| 20260903125312 | 8 | 208 | 0.0 | 0.0 | 0.00 | 0.00 | 0.00 | 70 | 1028.6 |
| 20260903124811 | 8 | 208 | 0.0 | 0.0 | 0.00 | 0.00 | 0.00 | 71 | 1028.4 |
| 20260903124307 | 8 | 234 | 0.0 | 0.0 | 0.00 | 0.00 | 0.00 | 69 | 1028.3 |
| 20260903123805 | 9 | 213 | 0.0 | 1.6 | 0.00 | 0.00 | 0.00 | 70 | 1028.4 |
| 20260903123305 | 10 | 225 | 0.0 | 0.0 | 0.00 | 0.00 | 0.00 | 68 | 1028.4 |
| 20260903122804 | 10 | 155 | 4.8 | 4.8 | 0.00 | 0.00 | 0.00 | 65 | 1028.1 |
| 20260903122259 | 9 | 236 | 0.0 | 0.0 | 0.00 | 0.00 | 0.00 | 66 | 1027.9 |
| 20260903121756 | 10 | 34 | 1.6 | 1.6 | 0.00 | 0.00 | 0.00 | 67 | 1028.1 |
| 20260903121253 | 10 | 170 | 1.6 | 3.2 | 0.00 | 0.00 | 0.00 | 67 | 1027.9 |
| 20260903120749 | 10 | 204 | 0.0 | 1.6 | 0.00 | 0.00 | 0.00 | 64 | 1028.0 |
| 20260903120242 | 11 | 221 | 0.0 | 0.0 | 0.00 | 0.00 | 0.00 | 63 | 1027.8 |
| 20260903115741 | 11 | 216 | 0.0 | 0.0 | 0.00 | 0.00 | 0.00 | 61 | 1028.1 |
| 20260903115236 | 11 | 205 | 3.2 | 3.2 | 0.00 | 0.00 | 0.00 | 60 | 1028.0 |
| 20260903114736 | 12 | 164 | 3.2 | 3.2 | 0.00 | 0.00 | 0.00 | 58 | 1028.0 |
| 20260903114232 | 12 | 171 | 4.8 | 4.8 | 0.00 | 0.00 | 0.00 | 58 | 1027.9 |
| 20260903113727 | 10 | 212 | 0.0 | 0.0 | 0.00 | 0.00 | 0.00 | 67 | 1027.8 |
| 20260903113223 | 8 | 221 | 0.0 | 0.0 | 0.00 | 0.00 | 0.00 | 68 | 1027.9 |
| 20260903112719 | 8 | 213 | 0.0 | 0.0 | 0.00 | 0.00 | 0.00 | 69 | 1027.9 |
| 20260903112214 | 8 | 230 | 0.0 | 0.0 | 0.00 | 0.00 | 0.00 | 69 | 1028.0 |
| 20260903111712 | 8 | 217 | 0.0 | 1.6 | 0.00 | 0.00 | 0.00 | 68 | 1027.9 |
| 20260903111208 | 8 | 220 | 0.0 | 0.0 | 0.00 | 0.00 | 0.00 | 70 | 1027.8 |
| 20260903110658 | 8 | 158 | 4.8 | 4.8 | 0.00 | 0.00 | 0.00 | 72 | 1028.0 |
| 20260903110154 | 9 | 224 | 0.0 | 0.0 | 0.00 | 0.00 | 0.00 | 69 | 1027.9 |
| 20260903105653 | 9 | 177 | 3.2 | 3.2 | 0.00 | 0.00 | 0.00 | 68 | 1027.9 |
| 20260903105149 | 8 | 199 | 0.0 | 0.0 | 0.00 | 0.00 | 0.00 | 72 | 1028.0 |
| 20260903104648 | 8 | 208 | 0.0 | 1.6 | 0.00 | 0.00 | 0.00 | 73 | 1028.1 |
| 20260903104144 | 9 | 169 | 3.2 | 3.2 | 0.00 | 0.00 | 0.00 | 68 | 1027.9 |
| 20260903103639 | 9 | 216 | 1.6 | 3.2 | 0.00 | 0.00 | 0.00 | 68 | 1027.9 |
| 20260903103136 | 9 | 215 | 1.6 | 1.6 | 0.00 | 0.00 | 0.00 | 69 | 1027.8 |
| 20260903102631 | 9 | 227 | 0.0 | 0.0 | 0.00 | 0.00 | 0.00 | 70 | 1027.9 |
| 20260903102129 | 10 | 217 | 0.0 | 0.0 | 0.00 | 0.00 | 0.00 | 68 | 1028.0 |
| 20260903101624 | 12 | 209 | 0.0 | 0.0 | 0.00 | 0.00 | 0.00 | 59 | 1027.8 |
| 20260903101119 | 11 | 132 | 6.4 | 9.7 | 0.00 | 0.00 | 0.00 | 59 | 1028.0 |
| 20260903100614 | 11 | 155 | 4.8 | 4.8 | 0.00 | 0.00 | 0.00 | 62 | 1028.0 |
| 20260903100113 | 10 | 221 | 0.0 | 0.0 | 0.00 | 0.00 | 0.00 | 64 | 1027.8 |
| 20260903095611 | 10 | 173 | 3.2 | 3.2 | 0.00 | 0.00 | 0.00 | 63 | 1027.6 |
| 20260903095111 | 10 | 186 | 0.0 | 1.6 | 0.00 | 0.00 | 0.00 | 68 | 1028.1 |
| 20260903094606 | 12 | 262 | 1.6 | 1.6 | 0.00 | 0.00 | 0.00 | 60 | 1028.0 |
| 20260903094101 | 12 | 206 | 1.6 | 1.6 | 0.00 | 0.00 | 0.00 | 58 | 1027.9 |
| 20260903093556 | 11 | 154 | 4.8 | 4.8 | 0.00 | 0.00 | 0.00 | 59 | 1027.8 |
| 20260903093052 | 11 | 184 | 1.6 | 1.6 | 0.00 | 0.00 | 0.00 | 60 | 1027.9 |
| 20260903092551 | 11 | 184 | 0.0 | 1.6 | 0.00 | 0.00 | 0.00 | 62 | 1027.8 |
| 20260903092045 | 10 | 183 | 1.6 | 1.6 | 0.00 | 0.00 | 0.00 | 66 | 1027.6 |
| 20260903091544 | 8 | 219 | 0.0 | 0.0 | 0.00 | 0.00 | 0.00 | 73 | 1027.8 |
| 20260903091038 | 8 | 193 | 1.6 | 1.6 | 0.00 | 0.00 | 0.00 | 74 | 1027.9 |
| 20260903090535 | 8 | 214 | 0.0 | 0.0 | 0.00 | 0.00 | 0.00 | 74 | 1028.1 |
| 20260903090033 | 8 | 202 | 0.0 | 1.6 | 0.00 | 0.00 | 0.00 | 75 | 1027.9 |
| 20260903085531 | 8 | 214 | 0.0 | 0.0 | 0.00 | 0.00 | 0.00 | 75 | 1028.1 |
| 20260903085027 | 8 | 225 | 0.0 | 0.0 | 0.00 | 0.00 | 0.00 | 75 | 1028.1 |
| 20260903084525 | 8 | 222 | 0.0 | 0.0 | 0.00 | 0.00 | 0.00 | 74 | 1027.9 |
| 20260903084020 | 8 | 201 | 0.0 | 0.0 | 0.00 | 0.00 | 0.00 | 75 | 1028.4 |
| 20260903083516 | 8 | 217 | 0.0 | 0.0 | 0.00 | 0.00 | 0.00 | 75 | 1028.1 |
| 20260903083010 | 8 | 197 | 0.0 | 0.0 | 0.00 | 0.00 | 0.00 | 76 | 1028.1 |
| 20260903082504 | 8 | 217 | 0.0 | 0.0 | 0.00 | 0.00 | 0.00 | 77 | 1028.0 |
| 20260903082000 | 8 | 217 | 0.0 | 0.0 | 0.00 | 0.00 | 0.00 | 77 | 1028.0 |
| 20260903081455 | 9 | 230 | 0.0 | 0.0 | 0.00 | 0.00 | 0.00 | 77 | 1028.3 |
| 20260903080951 | 9 | 219 | 1.6 | 1.6 | 0.00 | 0.00 | 0.00 | 77 | 1028.1 |
| 20260903080447 | 9 | 214 | 0.0 | 0.0 | 0.00 | 0.00 | 0.00 | 77 | 1028.0 |
| 20260903075943 | 9 | 179 | 1.6 | 3.2 | 0.00 | 0.00 | 0.00 | 77 | 1028.1 |
| 20260903075438 | 8 | 187 | 1.6 | 1.6 | 0.00 | 0.00 | 0.00 | 79 | 1028.1 |
| 20260903074933 | 9 | 209 | 0.0 | 0.0 | 0.00 | 0.00 | 0.00 | 79 | 1028.3 |
| 20260903074432 | 9 | 212 | 0.0 | 0.0 | 0.00 | 0.00 | 0.00 | 79 | 1028.0 |
| 20260903073928 | 10 | 219 | 0.0 | 0.0 | 0.00 | 0.00 | 0.00 | 78 | 1028.4 |
| 20260903073423 | 9 | 175 | 3.2 | 3.2 | 0.00 | 0.00 | 0.00 | 78 | 1028.6 |
| 20260903072918 | 10 | 196 | 1.6 | 1.6 | 0.00 | 0.00 | 0.00 | 77 | 1028.5 |
| 20260903072414 | 10 | 222 | 0.0 | 0.0 | 0.00 | 0.00 | 0.00 | 77 | 1028.4 |
| 20260903071911 | 10 | 184 | 0.0 | 0.0 | 0.00 | 0.00 | 0.00 | 75 | 1028.6 |
| 20260903071407 | 10 | 219 | 0.0 | 0.0 | 0.00 | 0.00 | 0.00 | 77 | 1028.4 |
| 20260903070903 | 10 | 193 | 0.0 | 0.0 | 0.00 | 0.00 | 0.00 | 77 | 1028.5 |
| 20260903070357 | 10 | 219 | 0.0 | 0.0 | 0.00 | 0.00 | 0.00 | 77 | 1028.6 |
| 20260903065851 | 11 | 154 | 3.2 | 3.2 | 0.00 | 0.00 | 0.00 | 78 | 1028.5 |
| 20260903065351 | 11 | 154 | 3.2 | 3.2 | 0.00 | 0.00 | 0.00 | 78 | 1028.5 |
| 20260903064850 | 11 | 203 | 0.0 | 1.6 | 0.00 | 0.00 | 0.00 | 74 | 1028.6 |
| 20260903064346 | 11 | 213 | 1.6 | 1.6 | 0.00 | 0.00 | 0.00 | 74 | 1028.6 |
| 20260903063842 | 11 | 193 | 0.0 | 0.0 | 0.00 | 0.00 | 0.00 | 76 | 1028.5 |
| 20260903063337 | 11 | 212 | 0.0 | 0.0 | 0.00 | 0.00 | 0.00 | 76 | 1028.6 |
| 20260903062833 | 11 | 221 | 0.0 | 0.0 | 0.00 | 0.00 | 0.00 | 75 | 1028.5 |
| 20260903062332 | 12 | 230 | 0.0 | 0.0 | 0.00 | 0.00 | 0.00 | 74 | 1028.8 |
| 20260903061828 | 12 | 167 | 3.2 | 3.2 | 0.00 | 0.00 | 0.00 | 74 | 1028.5 |
| 20260903061321 | 12 | 219 | 0.0 | 0.0 | 0.00 | 0.00 | 0.00 | 74 | 1028.4 |
| 20260903060818 | 12 | 197 | 1.6 | 1.6 | 0.00 | 0.00 | 0.00 | 71 | 1028.4 |
| 20260903060317 | 12 | 204 | 1.6 | 1.6 | 0.00 | 0.00 | 0.00 | 72 | 1028.4 |
| 20260903055815 | 12 | 166 | 3.2 | 3.2 | 0.00 | 0.00 | 0.00 | 73 | 1028.8 |
| 20260903055313 | 12 | 213 | 0.0 | 0.0 | 0.00 | 0.00 | 0.00 | 72 | 1028.5 |
| 20260903054808 | 13 | 222 | 0.0 | 0.0 | 0.00 | 0.00 | 0.00 | 71 | 1028.5 |
| 20260903054302 | 13 | 179 | 3.2 | 3.2 | 0.00 | 0.00 | 0.00 | 71 | 1028.6 |
| 20260903053800 | 13 | 222 | 0.0 | 0.0 | 0.00 | 0.00 | 0.00 | 71 | 1028.4 |
| 20260903053254 | 13 | 215 | 0.0 | 0.0 | 0.00 | 0.00 | 0.00 | 70 | 1028.4 |
| 20260903052750 | 13 | 216 | 0.0 | 0.0 | 0.00 | 0.00 | 0.00 | 69 | 1028.6 |
| 20260903052245 | 13 | 199 | 0.0 | 0.0 | 0.00 | 0.00 | 0.00 | 69 | 1028.5 |
| 20260903051740 | 13 | 208 | 0.0 | 0.0 | 0.00 | 0.00 | 0.00 | 68 | 1028.4 |
| 20260903051236 | 14 | 204 | 0.0 | 1.6 | 0.00 | 0.00 | 0.00 | 69 | 1028.5 |
| 20260903050731 | 15 | 222 | 0.0 | 0.0 | 0.00 | 0.00 | 0.00 | 65 | 1028.5 |
| 20260903050230 | 15 | 189 | 3.2 | 3.2 | 0.00 | 0.00 | 0.00 | 66 | 1028.6 |
| 20260903045725 | 15 | 209 | 0.0 | 0.0 | 0.00 | 0.00 | 0.00 | 67 | 1028.8 |
| 20260903045221 | 15 | 197 | 3.2 | 3.2 | 0.00 | 0.00 | 0.00 | 66 | 1028.6 |
| 20260903044717 | 14 | 207 | 1.6 | 1.6 | 0.00 | 0.00 | 0.00 | 68 | 1028.8 |
| 20260903044212 | 14 | 232 | 0.0 | 0.0 | 0.00 | 0.00 | 0.00 | 69 | 1028.5 |
| 20260903043709 | 14 | 209 | 0.0 | 0.0 | 0.00 | 0.00 | 0.00 | 69 | 1028.6 |
| 20260903043208 | 14 | 219 | 0.0 | 0.0 | 0.00 | 0.00 | 0.00 | 69 | 1029.0 |
| 20260903042708 | 15 | 218 | 0.0 | 0.0 | 0.00 | 0.00 | 0.00 | 69 | 1029.0 |
| 20260903042203 | 15 | 200 | 0.0 | 0.0 | 0.00 | 0.00 | 0.00 | 69 | 1029.3 |
| 20260903041659 | 15 | 195 | 0.0 | 1.6 | 0.00 | 0.00 | 0.00 | 69 | 1029.5 |
| 20260903041155 | 15 | 241 | 1.6 | 1.6 | 0.00 | 0.00 | 0.00 | 69 | 1029.1 |
| 20260903040654 | 15 | 237 | 0.0 | 1.6 | 0.00 | 0.00 | 0.00 | 68 | 1029.0 |
| 20260903040150 | 15 | 224 | 1.6 | 3.2 | 0.00 | 0.00 | 0.00 | 68 | 1029.1 |
| 20260903035646 | 14 | 233 | 3.2 | 3.2 | 0.00 | 0.00 | 0.00 | 68 | 1029.0 |
| 20260903035142 | 15 | 223 | 0.0 | 0.0 | 0.00 | 0.00 | 0.00 | 67 | 1028.6 |
| 20260903034636 | 15 | 224 | 0.0 | 0.0 | 0.00 | 0.00 | 0.00 | 65 | 1028.5 |
| 20260903034131 | 15 | 195 | 1.6 | 1.6 | 0.00 | 0.00 | 0.00 | 65 | 1029.0 |
| 20260903033627 | 15 | 200 | 0.0 | 0.0 | 0.00 | 0.00 | 0.00 | 65 | 1029.1 |
| 20260903033126 | 15 | 210 | 0.0 | 0.0 | 0.00 | 0.00 | 0.00 | 65 | 1029.1 |
| 20260903032622 | 15 | 195 | 0.0 | 1.6 | 0.00 | 0.00 | 0.00 | 65 | 1029.3 |
| 20260903032117 | 15 | 220 | 0.0 | 0.0 | 0.00 | 0.00 | 0.00 | 65 | 1028.8 |
| 20260903031612 | 15 | 217 | 1.6 | 1.6 | 0.00 | 0.00 | 0.00 | 63 | 1028.9 |
| 20260903031107 | 15 | 181 | 1.6 | 1.6 | 0.00 | 0.00 | 0.00 | 65 | 1028.6 |
| 20260903030603 | 15 | 152 | 4.8 | 4.8 | 0.00 | 0.00 | 0.00 | 65 | 1028.3 |
| 20260903030058 | 15 | 204 | 1.6 | 1.6 | 0.00 | 0.00 | 0.00 | 66 | 1028.5 |
| 20260903025553 | 15 | 224 | 0.0 | 0.0 | 0.00 | 0.00 | 0.00 | 66 | 1028.8 |
| 20260903025049 | 15 | 222 | 0.0 | 1.6 | 0.00 | 0.00 | 0.00 | 67 | 1028.3 |
| 20260903024549 | 16 | 223 | 0.0 | 0.0 | 0.00 | 0.00 | 0.00 | 63 | 1028.4 |
| 20260903024043 | 17 | 219 | 0.0 | 1.6 | 0.00 | 0.00 | 0.00 | 58 | 1028.4 |
| 20260903023539 | 17 | 264 | 3.2 | 3.2 | 0.00 | 0.00 | 0.00 | 57 | 1028.3 |
| 20260903023034 | 17 | 250 | 1.6 | 1.6 | 0.00 | 0.00 | 0.00 | 57 | 1028.5 |
| 20260903022533 | 17 | 251 | 0.0 | 0.0 | 0.00 | 0.00 | 0.00 | 58 | 1028.6 |
| 20260903022032 | 17 | 224 | 0.0 | 0.0 | 0.00 | 0.00 | 0.00 | 56 | 1028.4 |
| 20260903021527 | 17 | 283 | 3.2 | 4.8 | 0.00 | 0.00 | 0.00 | 55 | 1028.6 |
| 20260903021022 | 18 | 210 | 1.6 | 1.6 | 0.00 | 0.00 | 0.00 | 55 | 1028.6 |
| 20260903020518 | 18 | 220 | 3.2 | 3.2 | 0.00 | 0.00 | 0.00 | 53 | 1028.6 |
| 20260903020017 | 18 | 305 | 6.4 | 8.0 | 0.00 | 0.00 | 0.00 | 55 | 1028.1 |
| 20260903015513 | 18 | 172 | 0.0 | 1.6 | 0.00 | 0.00 | 0.00 | 53 | 1028.1 |
| 20260903015008 | 18 | 220 | 1.6 | 1.6 | 0.00 | 0.00 | 0.00 | 55 | 1028.5 |
| 20260903014502 | 18 | 222 | 1.6 | 3.2 | 0.00 | 0.00 | 0.00 | 54 | 1028.4 |
| 20260903013957 | 17 | 211 | 0.0 | 1.6 | 0.00 | 0.00 | 0.00 | 58 | 1027.8 |
| 20260903013457 | 17 | 241 | 0.0 | 0.0 | 0.00 | 0.00 | 0.00 | 56 | 1027.8 |
| 20260903012956 | 17 | 224 | 1.6 | 1.6 | 0.00 | 0.00 | 0.00 | 55 | 1027.8 |
| 20260903012455 | 18 | 207 | 0.0 | 1.6 | 0.00 | 0.00 | 0.00 | 54 | 1027.6 |
| 20260903011954 | 18 | 221 | 0.0 | 0.0 | 0.00 | 0.00 | 0.00 | 53 | 1027.8 |
| 20260903011449 | 18 | 210 | 0.0 | 0.0 | 0.00 | 0.00 | 0.00 | 52 | 1027.4 |
| 20260903010944 | 18 | 200 | 1.6 | 1.6 | 0.00 | 0.00 | 0.00 | 51 | 1027.5 |
| 20260903010439 | 19 | 203 | 1.6 | 1.6 | 0.00 | 0.00 | 0.00 | 51 | 1027.4 |
| 20260903005937 | 20 | 200 | 0.0 | 0.0 | 0.00 | 0.00 | 0.00 | 51 | 1027.6 |
| 20260903005433 | 20 | 250 | 0.0 | 0.0 | 0.00 | 0.00 | 0.00 | 49 | 1027.5 |
| 20260903004929 | 20 | 259 | 3.2 | 3.2 | 0.00 | 0.00 | 0.00 | 49 | 1027.6 |
| 20260903004424 | 20 | 223 | 3.2 | 4.8 | 0.00 | 0.00 | 0.00 | 49 | 1027.8 |
| 20260903003920 | 20 | 222 | 0.0 | 0.0 | 0.00 | 0.00 | 0.00 | 47 | 1027.6 |
| 20260903003419 | 20 | 219 | 0.0 | 0.0 | 0.00 | 0.00 | 0.00 | 47 | 1027.6 |
| 20260903002920 | 20 | 223 | 0.0 | 0.0 | 0.00 | 0.00 | 0.00 | 46 | 1027.8 |
| 20260903002415 | 21 | 212 | 0.0 | 0.0 | 0.00 | 0.00 | 0.00 | 44 | 1027.3 |
| 20260903001915 | 21 | 199 | 1.6 | 1.6 | 0.00 | 0.00 | 0.00 | 44 | 1027.4 |
| 20260903001409 | 21 | 60 | 0.0 | 1.6 | 0.00 | 0.00 | 0.00 | 43 | 1027.1 |
| 20260903000909 | 21 | 224 | 1.6 | 1.6 | 0.00 | 0.00 | 0.00 | 43 | 1027.1 |
| 20260903000404 | 22 | 156 | 1.6 | 1.6 | 0.00 | 0.00 | 0.00 | 43 | 1027.0 |
| 20260902235902 | 22 | 215 | 0.0 | 0.0 | 0.00 | 0.00 | 0.00 | 41 | 1027.4 |
| 20260902235358 | 22 | 219 | 0.0 | 0.0 | 0.00 | 0.00 | 0.00 | 40 | 1027.1 |
| 20260902234852 | 22 | 224 | 0.0 | 0.0 | 0.00 | 0.00 | 0.00 | 40 | 1027.3 |
| 20260902234352 | 22 | 217 | 0.0 | 0.0 | 0.00 | 0.00 | 0.00 | 41 | 1027.1 |
| 20260902233850 | 22 | 197 | 1.6 | 1.6 | 0.00 | 0.00 | 0.00 | 40 | 1027.5 |
| 20260902233345 | 22 | 190 | 0.0 | 0.0 | 0.00 | 0.00 | 0.00 | 41 | 1027.5 |
| 20260902232844 | 22 | 197 | 1.6 | 1.6 | 0.00 | 0.00 | 0.00 | 40 | 1027.4 |
| 20260902232339 | 22 | 19 | 4.8 | 8.0 | 0.00 | 0.00 | 0.00 | 40 | 1027.0 |
| 20260902231838 | 23 | 65 | 4.8 | 8.0 | 0.00 | 0.00 | 0.00 | 40 | 1027.6 |
| 20260902231333 | 23 | 41 | 3.2 | 4.8 | 0.00 | 0.00 | 0.00 | 40 | 1027.5 |
| 20260902230828 | 23 | 192 | 1.6 | 3.2 | 0.00 | 0.00 | 0.00 | 38 | 1027.8 |
| 20260902230328 | 25 | 309 | 3.2 | 3.2 | 0.00 | 0.00 | 0.00 | 38 | 1027.6 |
| 20260902225822 | 23 | 227 | 3.2 | 4.8 | 0.00 | 0.00 | 0.00 | 38 | 1027.6 |
| 20260902225317 | 22 | 236 | 1.6 | 1.6 | 0.00 | 0.00 | 0.00 | 39 | 1027.6 |
| 20260902224816 | 22 | 5 | 4.8 | 4.8 | 0.00 | 0.00 | 0.00 | 39 | 1027.9 |
| 20260902224311 | 22 | 45 | 3.2 | 3.2 | 0.00 | 0.00 | 0.00 | 40 | 1027.6 |
| 20260902223808 | 22 | 140 | 1.6 | 3.2 | 0.00 | 0.00 | 0.00 | 40 | 1027.5 |
| 20260902223307 | 23 | 287 | 4.8 | 8.0 | 0.00 | 0.00 | 0.00 | 39 | 1027.6 |
| 20260902222801 | 23 | 31 | 1.6 | 4.8 | 0.00 | 0.00 | 0.00 | 39 | 1027.4 |
| 20260902222300 | 23 | 194 | 1.6 | 1.6 | 0.00 | 0.00 | 0.00 | 39 | 1027.3 |
| 20260902221755 | 23 | 213 | 1.6 | 3.2 | 0.00 | 0.00 | 0.00 | 38 | 1027.4 |
| 20260902221254 | 23 | 95 | 3.2 | 3.2 | 0.00 | 0.00 | 0.00 | 39 | 1027.4 |
| 20260902220750 | 23 | 255 | 3.2 | 3.2 | 0.00 | 0.00 | 0.00 | 39 | 1027.5 |
| 20260902220249 | 23 | 139 | 4.8 | 4.8 | 0.00 | 0.00 | 0.00 | 39 | 1027.5 |
| 20260902215745 | 23 | 138 | 11.3 | 11.3 | 0.00 | 0.00 | 0.00 | 38 | 1027.3 |
| 20260902215240 | 22 | 226 | 0.0 | 0.0 | 0.00 | 0.00 | 0.00 | 39 | 1027.5 |
| 20260902214736 | 22 | 228 | 1.6 | 1.6 | 0.00 | 0.00 | 0.00 | 39 | 1027.5 |
| 20260902214234 | 22 | 209 | 0.0 | 1.6 | 0.00 | 0.00 | 0.00 | 39 | 1027.8 |
| 20260902213730 | 22 | 197 | 1.6 | 1.6 | 0.00 | 0.00 | 0.00 | 39 | 1027.9 |
| 20260902213230 | 23 | 216 | 1.6 | 3.2 | 0.00 | 0.00 | 0.00 | 39 | 1027.8 |
| 20260902212729 | 23 | 335 | 6.4 | 8.0 | 0.00 | 0.00 | 0.00 | 39 | 1027.6 |
| 20260902212226 | 23 | 262 | 8.0 | 9.7 | 0.00 | 0.00 | 0.00 | 38 | 1028.0 |
| 20260902211722 | 23 | 200 | 3.2 | 3.2 | 0.00 | 0.00 | 0.00 | 38 | 1028.0 |
| 20260902211217 | 23 | 90 | 1.6 | 1.6 | 0.00 | 0.00 | 0.00 | 38 | 1028.1 |
| 20260902210712 | 23 | 146 | 1.6 | 1.6 | 0.00 | 0.00 | 0.00 | 39 | 1028.0 |
| 20260902210207 | 22 | 294 | 3.2 | 3.2 | 0.00 | 0.00 | 0.00 | 38 | 1028.0 |
| 20260902205705 | 23 | 130 | 1.6 | 3.2 | 0.00 | 0.00 | 0.00 | 39 | 1028.3 |
| 20260902205200 | 23 | 151 | 3.2 | 3.2 | 0.00 | 0.00 | 0.00 | 38 | 1027.9 |
| 20260902204655 | 24 | 353 | 4.8 | 8.0 | 0.00 | 0.00 | 0.00 | 36 | 1028.4 |
| 20260902204149 | 23 | 222 | 0.0 | 1.6 | 0.00 | 0.00 | 0.00 | 37 | 1028.5 |
| 20260902203645 | 23 | 99 | 4.8 | 8.0 | 0.00 | 0.00 | 0.00 | 38 | 1028.5 |
| 20260902203140 | 23 | 123 | 1.6 | 3.2 | 0.00 | 0.00 | 0.00 | 38 | 1028.6 |
| 20260902202635 | 23 | 133 | 1.6 | 3.2 | 0.00 | 0.00 | 0.00 | 37 | 1028.9 |
| 20260902202132 | 23 | 4 | 4.8 | 8.0 | 0.00 | 0.00 | 0.00 | 37 | 1028.3 |
| 20260902201627 | 23 | 69 | 4.8 | 8.0 | 0.00 | 0.00 | 0.00 | 37 | 1028.5 |
| 20260902201127 | 23 | 205 | 0.0 | 1.6 | 0.00 | 0.00 | 0.00 | 37 | 1028.9 |
| 20260902200622 | 23 | 38 | 6.4 | 9.7 | 0.00 | 0.00 | 0.00 | 38 | 1028.8 |
| 20260902200118 | 23 | 51 | 6.4 | 11.3 | 0.00 | 0.00 | 0.00 | 37 | 1028.4 |
| 20260902195614 | 23 | 61 | 6.4 | 9.7 | 0.00 | 0.00 | 0.00 | 37 | 1028.6 |
| 20260902195113 | 22 | 61 | 6.4 | 9.7 | 0.00 | 0.00 | 0.00 | 38 | 1028.9 |
| 20260902194612 | 23 | 35 | 12.9 | 16.1 | 0.00 | 0.00 | 0.00 | 37 | 1028.8 |
| 20260902194107 | 23 | 221 | 3.2 | 3.2 | 0.00 | 0.00 | 0.00 | 37 | 1028.9 |
| 20260902193603 | 23 | 83 | 4.8 | 8.0 | 0.00 | 0.00 | 0.00 | 37 | 1028.9 |
| 20260902193103 | 22 | 95 | 3.2 | 4.8 | 0.00 | 0.00 | 0.00 | 40 | 1029.0 |
| 20260902192601 | 22 | 181 | 3.2 | 4.8 | 0.00 | 0.00 | 0.00 | 41 | 1029.1 |
| 20260902192100 | 22 | 223 | 4.8 | 9.7 | 0.00 | 0.00 | 0.00 | 39 | 1028.9 |
| 20260902191555 | 22 | 139 | 8.0 | 8.0 | 0.00 | 0.00 | 0.00 | 38 | 1029.1 |
| 20260902191050 | 22 | 227 | 4.8 | 4.8 | 0.00 | 0.00 | 0.00 | 38 | 1029.5 |
| 20260902190545 | 23 | 189 | 1.6 | 3.2 | 0.00 | 0.00 | 0.00 | 37 | 1029.3 |
| 20260902190041 | 22 | 252 | 4.8 | 8.0 | 0.00 | 0.00 | 0.00 | 37 | 1029.3 |
| 20260902185537 | 22 | 336 | 3.2 | 3.2 | 0.00 | 0.00 | 0.00 | 36 | 1029.5 |
| 20260902185032 | 23 | 230 | 6.4 | 8.0 | 0.00 | 0.00 | 0.00 | 35 | 1029.5 |
| 20260902184527 | 23 | 229 | 4.8 | 8.0 | 0.00 | 0.00 | 0.00 | 37 | 1029.4 |
| 20260902184022 | 23 | 215 | 1.6 | 1.6 | 0.00 | 0.00 | 0.00 | 34 | 1029.5 |
| 20260902183519 | 23 | 188 | 4.8 | 4.8 | 0.00 | 0.00 | 0.00 | 34 | 1029.5 |
| 20260902183015 | 24 | 133 | 1.6 | 3.2 | 0.00 | 0.00 | 0.00 | 34 | 1029.7 |
| 20260902182511 | 24 | 134 | 4.8 | 4.8 | 0.00 | 0.00 | 0.00 | 35 | 1029.7 |
| 20260902182006 | 24 | 127 | 3.2 | 8.0 | 0.00 | 0.00 | 0.00 | 35 | 1029.9 |
| 20260902181502 | 23 | 40 | 3.2 | 8.0 | 0.00 | 0.00 | 0.00 | 35 | 1029.8 |
| 20260902180956 | 23 | 72 | 4.8 | 8.0 | 0.00 | 0.00 | 0.00 | 35 | 1029.9 |
| 20260902180457 | 23 | 177 | 1.6 | 1.6 | 0.00 | 0.00 | 0.00 | 35 | 1030.0 |
| 20260902175952 | 23 | 170 | 4.8 | 4.8 | 0.00 | 0.00 | 0.00 | 33 | 1030.5 |
| 20260902175447 | 24 | 39 | 4.8 | 4.8 | 0.00 | 0.00 | 0.00 | 34 | 1030.3 |
| 20260902174943 | 24 | 209 | 0.0 | 1.6 | 0.00 | 0.00 | 0.00 | 35 | 1030.2 |
| 20260902174439 | 23 | 235 | 1.6 | 1.6 | 0.00 | 0.00 | 0.00 | 35 | 1030.3 |
| 20260902173935 | 23 | 154 | 4.8 | 8.0 | 0.00 | 0.00 | 0.00 | 35 | 1030.7 |
| 20260902173434 | 23 | 354 | 4.8 | 4.8 | 0.00 | 0.00 | 0.00 | 35 | 1030.4 |
| 20260902172929 | 23 | 334 | 4.8 | 8.0 | 0.00 | 0.00 | 0.00 | 35 | 1030.2 |
| 20260902172428 | 23 | 142 | 3.2 | 3.2 | 0.00 | 0.00 | 0.00 | 35 | 1030.4 |
| 20260902171924 | 22 | 199 | 1.6 | 3.2 | 0.00 | 0.00 | 0.00 | 37 | 1030.4 |